[[{"header":{"parameterUnit":"m.s-1","parameterCategory":1,"la1":30.2991,"la2":30.254,"lo1":-89.0895,"lo2":-89.0444,"dy":0.0017,"dx":0.0017,"nx":28,"ny":28,"refTime":"2025-07-31T09:00:00:Z","depth":0,"parameterNumber":2,"parameterNumberName":"U-component_of_WINDS"},"data":[0,0,0,0,0,0,0,0,0,0,0,0,0,0,0,0,0,0,0,0,0,0,0,0,0,0,0,0,0,0,0,0,0,0,0,0,0,0,0,0,0,0,0,0,0,0,0,0,0,0,0,0,0,0,0,0,0,0,1.9861,1.9862,0,1.9892,1.9892,1.9892,1.9852,1.985,1.9849,1.9847,1.9882,1.9884,1.9886,0,0,0,0,0,0,0,0,0,0,0,0,0,1.9769,1.977,1.9861,1.9862,1.9862,1.9892,1.9892,1.9893,1.9852,1.985,1.9848,1.9847,1.9881,1.9884,1.9886,0,0,0,0,0,0,0,0,0,0,0,0,0,1.9805,1.9771,1.9861,1.9845,1.9844,1.9892,1.9892,1.9893,1.9852,1.985,1.9848,1.9846,1.988,1.9883,1.9887,1.9952,0,0,1.9897,1.9899,0,0,0,0,0,0,0,0,1.9803,1.9809,1.9847,1.9846,1.9845,1.9866,1.9872,1.9913,1.9853,1.9849,1.9847,1.9845,1.9878,1.9882,1.9893,1.9954,1.9955,1.9898,1.99,1.9901,1.9902,0,0,0,0,0,0,0,1.9801,1.9807,1.9873,1.9848,1.9847,1.9837,1.984,1.988,1.9876,1.985,1.9847,1.9851,1.9877,1.9889,1.9893,1.9956,1.9898,1.9901,1.9903,1.9904,2.007,2.0072,0,0,0,0,0,0,1.98,1.9805,1.9872,1.9874,1.9818,1.984,1.9843,1.9861,1.9875,1.9875,1.9853,1.9849,1.9885,1.9889,1.9894,1.997,1.9901,1.9904,1.9906,2.0068,2.007,2.0073,0,0,0,0,0,0,1.9798,1.9806,1.9871,1.9839,1.9846,1.9844,1.9865,1.9863,1.9875,1.9878,1.9877,1.9865,1.9883,1.9889,1.9937,1.997,1.9906,1.9909,2.0065,2.0068,2.0072,2.0123,0,0,0,0,0,0,1.9795,1.9806,1.983,1.984,1.9848,1.9914,1.9867,1.9865,1.9881,1.9876,1.9889,1.989,1.9882,1.9932,1.9941,1.9974,1.9912,2.0062,2.0066,2.0071,2.0118,2.0128,2.0136,0,0,0,0,0,1.9792,1.9845,1.9832,1.984,1.9879,1.9916,1.9921,1.991,1.9883,1.9908,1.991,1.9889,1.9966,1.9938,1.9947,1.9982,2.006,2.0065,2.007,2.0114,2.0126,2.0136,0,0,0,0,0,0,1.9841,1.9846,1.9832,1.9889,1.9902,1.9909,1.994,1.9923,1.9945,1.9939,1.9926,1.9929,1.998,1.9986,1.9955,2.0044,2.0008,2.0016,2.0039,2.005,2.0058,2.0056,1.9915,0,0,0,0,0,1.9858,1.9887,1.989,1.994,1.9947,1.9942,1.9958,1.9948,1.9962,1.9968,1.9973,1.9987,2.0014,2.0032,2.0058,2.0119,2.012,2.0147,2.0156,2.0163,2.0169,2.02,2.0211,2.009,2.009,2.009,0,0,1.9895,1.9901,1.992,1.995,1.9959,1.9989,1.9948,1.9982,2.0004,1.9973,2.0018,2.0022,2.0037,2.0092,2.0116,2.0098,2.0203,2.017,2.0176,2.0178,2.0207,2.0218,2.0228,2.0094,2.0093,2.0093,0,0,1.9976,1.9984,2.0025,2.0034,2.0048,2.0044,2.0054,2.0063,2.0064,2.0109,2.0085,2.0112,2.0159,2.017,2.0182,2.0265,2.0246,2.0274,2.0319,2.035,2.0359,2.0367,2.0395,2.0406,2.028,2.028,2.028,0,2.0019,2.0063,2.0049,2.0084,2.0097,2.0069,2.011,2.012,2.0142,2.0152,2.0131,2.0188,2.0197,2.0252,2.0272,2.0283,2.0294,2.0272,2.0359,2.0367,2.0375,2.0401,2.0412,2.0283,2.0283,2.0283,2.0282,0,2.0115,2.0146,2.0178,2.0197,2.0214,2.0252,2.0244,2.0263,2.0251,2.0249,2.0294,2.0303,2.0328,2.0341,2.0331,2.0394,2.0382,2.0361,2.0324,2.0389,2.0414,2.0424,2.0288,2.0287,2.0286,2.0285,0,0,2.0229,2.0238,2.025,2.0257,2.0269,2.0293,2.0329,2.0353,2.0368,2.0384,2.0413,2.0453,2.0432,2.0445,2.0436,2.0463,2.0525,2.0437,2.0437,2.0452,2.0594,2.0609,2.0621,2.0513,2.0515,2.0517,2.0592,0,2.0308,2.037,2.0357,2.0418,2.0445,2.0418,2.0449,2.046,2.0459,2.0482,2.0481,2.0508,2.0479,2.0487,2.0512,2.0512,2.0553,2.0507,2.054,2.0541,2.0536,2.0635,2.0652,2.0723,2.0602,2.0603,2.0605,0,2.041,2.0427,2.0489,2.0494,2.0505,2.0534,2.0553,2.0576,2.0587,2.0584,2.0598,2.0583,2.0618,2.0581,2.063,2.0598,2.0611,2.0613,2.0616,2.0618,2.0576,2.0638,2.0745,2.0755,2.062,2.0619,2.0618,0,2.0484,2.0523,2.0565,2.0572,2.058,2.06,2.0605,2.0613,2.0627,2.0644,2.0653,2.0675,2.0687,2.0704,2.0695,2.0669,2.0744,2.0707,2.0742,2.0743,2.0759,2.0758,2.0869,2.0769,2.0769,2.0769,2.0769,0,2.0574,2.0613,2.0598,2.0624,2.0666,2.0651,2.0694,2.0695,2.0703,2.0728,2.0706,2.0731,2.0718,2.0741,2.0734,2.0774,2.078,2.0779,2.0776,2.078,2.078,2.0788,2.0782,2.0772,2.0771,2.0771,2.077,0,2.0665,2.0656,2.07,2.0702,2.0704,2.0735,2.0737,2.0761,2.0757,2.079,2.0796,2.0791,2.0817,2.081,2.0839,2.0834,2.0884,2.0876,2.088,2.0877,2.0913,2.0909,2.1031,2.1046,2.0938,2.0939,2.094,0,2.0722,2.0751,2.0756,2.077,2.0776,2.08,2.0813,2.0799,2.0814,2.0828,2.085,2.0873,2.0891,2.0934,2.0933,2.0955,2.0946,2.0988,2.095,2.0952,2.0945,2.0943,2.0945,2.0995,2.0996,2.0997,2.0998,0,2.0824,2.0818,2.0837,2.0855,2.0871,2.0885,2.0897,2.0911,2.0897,2.0915,2.094,2.0954,2.0982,2.1006,2.1025,2.1029,2.1011,2.101,2.1019,2.1023,2.1023,2.1022,2.0899,2.1007,2.1006,2.1006,2.1005,2.1005,2.0899,2.0922,2.0928,2.0951,2.0958,2.0969,2.099,2.0988,2.1009,2.1029,2.102,2.1049,2.1058,2.1081,2.1088,2.111,2.1094,2.1108,2.1111,2.1115,2.1118,2.102,2.1114,2.1113,2.1113,2.1113,2.1113,0,2.0998,2.1,2.1021,2.1037,2.1054,2.1034,2.1046,2.1061,2.1087,2.1096,2.1113,2.1141,2.1163,2.1163,2.1184,2.1201,2.1194,2.1207,2.1205,2.1206,2.1132,2.1121,2.1213,2.1213,2.1213,2.1213,2.1213,2.1213,2.1052,2.109,2.1084,2.1125,2.1127,2.1154,2.1162,2.1172,2.1178,2.121,2.1228,2.1227,2.1232,2.1252,2.1271,2.1271,2.1279,2.1295,2.1291,2.1222,2.1212,2.1202,2.1192,2.1297,2.1297,2.1364,2.1364,2.1365]},{"header":{"parameterUnit":"m.s-1","parameterCategory":1,"la1":30.2991,"la2":30.254,"lo1":-89.0895,"lo2":-89.0444,"dy":0.0017,"dx":0.0017,"nx":28,"ny":28,"refTime":"2025-07-31T09:00:00:Z","depth":0,"parameterNumber":3,"parameterNumberName":"V-component_of_WINDS"},"data":[0,0,0,0,0,0,0,0,0,0,0,0,0,0,0,0,0,0,0,0,0,0,0,0,0,0,0,0,0,0,0,0,0,0,0,0,0,0,0,0,0,0,0,0,0,0,0,0,0,0,0,0,0,0,0,0,0,0,4.9968,4.9968,0,4.9906,4.9905,4.9905,4.9831,4.983,4.9829,4.9828,4.9761,4.976,4.9759,0,0,0,0,0,0,0,0,0,0,0,0,0,5.0022,5.0021,4.9968,4.9968,4.9967,4.9906,4.9905,4.9905,4.9831,4.983,4.9829,4.9827,4.9761,4.976,4.9759,0,0,0,0,0,0,0,0,0,0,0,0,0,4.9983,5.0021,4.9969,4.9923,4.9918,4.9906,4.9905,4.9904,4.9832,4.983,4.9828,4.9827,4.9761,4.976,4.9759,4.9786,0,0,4.9756,4.9755,0,0,0,0,0,0,0,0,4.9985,4.9981,4.9931,4.9926,4.9921,4.9875,4.99,4.9865,4.9832,4.9864,4.9828,4.9826,4.98,4.9796,4.9787,4.9783,4.978,4.9756,4.9755,4.9755,4.9754,0,0,0,0,0,0,0,4.9988,4.9983,4.9944,4.993,4.9924,4.9905,4.9898,4.9893,4.9842,4.9861,4.9856,4.985,4.9797,4.9789,4.9785,4.9779,4.9756,4.9755,4.9754,4.9754,4.9793,4.9794,0,0,0,0,0,0,4.9998,4.9986,4.9946,4.9942,4.995,4.9906,4.9897,4.9891,4.9842,4.9833,4.9851,4.9847,4.9791,4.9787,4.9783,4.981,4.9755,4.9754,4.9753,4.9791,4.9793,4.9795,0,0,0,0,0,0,4.9999,4.9995,4.9948,4.9962,4.9955,4.9906,4.99,4.9891,4.9882,4.9834,4.9825,4.9852,4.979,4.9784,4.9786,4.9807,4.9753,4.9752,4.9789,4.9792,4.9794,4.9865,0,0,0,0,0,0,5.0001,4.9996,5.0006,4.9963,4.9955,4.9953,4.9901,4.9891,4.9881,4.9874,4.9833,4.9824,4.9788,4.9788,4.9785,4.9804,4.9751,4.9787,4.979,4.9793,4.9861,4.987,4.9878,0,0,0,0,0,5.0003,5.0028,5.0007,5.0002,4.9966,4.9955,4.995,4.9908,4.9883,4.9892,4.9862,4.9826,4.9805,4.9789,4.9784,4.9804,4.9785,4.9789,4.9793,4.9857,4.9868,4.9878,0,0,0,0,0,0,5.0073,5.0022,4.9997,5.0009,4.9987,4.9942,4.9953,4.9922,4.9905,4.9899,4.9848,4.9839,4.9847,4.9826,4.9808,4.9827,4.979,4.9793,4.984,4.985,4.9859,4.9863,4.975,0,0,0,0,0,5.0091,5.0086,5.0041,5.0056,5.0046,5.0002,4.9995,4.9965,4.994,4.993,4.9899,4.9875,4.9862,4.9856,4.9842,4.9858,4.9847,4.9869,4.9878,4.9885,4.9888,4.9894,4.9903,4.9807,4.9807,4.9807,0,0,5.0125,5.0096,5.0096,5.0069,5.0048,5.0044,4.9994,4.9992,4.9988,4.9929,4.9928,4.9905,4.9875,4.9884,4.9886,4.9866,4.9912,4.989,4.9896,4.9895,4.9899,4.9908,4.9916,4.981,4.9809,4.9809,0,0,5.0186,5.0164,5.0174,5.0155,5.0124,5.0095,5.0098,5.0058,5.004,5.0039,4.9995,4.9989,4.997,4.995,4.9937,4.9992,4.9958,4.9989,5.0033,5.0039,5.0047,5.0053,5.0071,5.0079,4.9992,4.9993,4.9993,0,5.0232,5.0225,5.0183,5.0183,5.0172,5.012,5.0129,5.0112,5.0079,5.0072,5.0051,5.0025,5.0001,5.0004,5.0018,5.001,5.001,4.9992,5.0049,5.0055,5.006,5.0077,5.0084,4.9996,4.9996,4.9996,4.9995,0,5.0283,5.0279,5.029,5.026,5.025,5.0255,5.0213,5.0208,5.018,5.0153,5.0152,5.0122,5.0101,5.01,5.0072,5.0099,5.0088,5.0059,5.002,5.0074,5.0089,5.0095,5.0002,5.0001,4.9999,4.9998,0,0,5.0384,5.0332,5.0336,5.0322,5.0286,5.0281,5.0284,5.0264,5.0261,5.024,5.024,5.0225,5.0199,5.0184,5.0154,5.016,5.0204,5.013,5.0128,5.0143,5.023,5.0251,5.026,5.0182,5.0183,5.0184,5.0232,0,5.0436,5.0438,5.0401,5.0412,5.0407,5.0359,5.0361,5.0338,5.0314,5.0305,5.0277,5.0267,5.0233,5.0224,5.0228,5.0198,5.022,5.0194,5.0179,5.0179,5.0187,5.0267,5.0289,5.0337,5.0238,5.0239,5.024,0,5.0497,5.0481,5.0493,5.0456,5.0452,5.0455,5.0434,5.0428,5.0401,5.0382,5.0367,5.0333,5.0332,5.0297,5.0294,5.0277,5.0269,5.0254,5.0254,5.025,5.0212,5.0263,5.0351,5.0358,5.0249,5.0248,5.0247,0,5.0568,5.0549,5.0553,5.0543,5.0501,5.0504,5.0486,5.0458,5.0449,5.0431,5.0424,5.0406,5.0396,5.0382,5.0344,5.0322,5.0345,5.0307,5.0328,5.0329,5.0333,5.0333,5.0419,5.0331,5.0331,5.0331,5.0331,0,5.0629,5.0638,5.0585,5.0587,5.0595,5.0552,5.0561,5.0539,5.0515,5.0511,5.0469,5.0466,5.0416,5.0408,5.0378,5.0379,5.0375,5.0359,5.035,5.0362,5.0364,5.0354,5.0349,5.0333,5.0332,5.0332,5.0332,0,5.0708,5.0673,5.0675,5.0635,5.0626,5.0633,5.0599,5.0599,5.0572,5.0569,5.0565,5.0523,5.0511,5.0472,5.045,5.0429,5.0439,5.0425,5.0449,5.0443,5.0466,5.0463,5.0547,5.0555,5.0465,5.0465,5.0466,0,5.0749,5.0754,5.0716,5.0712,5.0696,5.0689,5.068,5.0639,5.0631,5.0602,5.0605,5.059,5.0576,5.0559,5.0525,5.0508,5.0491,5.0522,5.0488,5.0499,5.049,5.0489,5.0489,5.0529,5.053,5.0531,5.0532,0,5.0824,5.0807,5.0796,5.0779,5.077,5.0755,5.0737,5.0735,5.0689,5.0682,5.067,5.066,5.0638,5.0623,5.0601,5.0581,5.0548,5.0543,5.0547,5.0557,5.057,5.0562,5.0467,5.0541,5.054,5.0539,5.0539,5.0538,5.0883,5.0886,5.086,5.0849,5.0832,5.0817,5.0815,5.0789,5.0779,5.0758,5.0735,5.0726,5.0699,5.0666,5.0649,5.0641,5.0623,5.0628,5.0629,5.0631,5.0636,5.0574,5.0636,5.0636,5.0636,5.0636,5.0635,0,5.0955,5.0936,5.0927,5.0904,5.0896,5.0868,5.0847,5.0842,5.0835,5.0813,5.0801,5.0787,5.0773,5.0739,5.0721,5.0721,5.0705,5.0717,5.0716,5.0712,5.0653,5.0651,5.073,5.073,5.073,5.073,5.073,5.073,5.0991,5.0994,5.0974,5.0968,5.0949,5.094,5.0931,5.0916,5.0899,5.0886,5.0874,5.0853,5.0826,5.0807,5.0792,5.0783,5.0777,5.0794,5.0779,5.0725,5.0716,5.0707,5.0705,5.0794,5.0794,5.0838,5.0838,5.0839]}]]